STARLINK-35292, 66322

Orbit data source: Space-Track

STARLINK-35292, 66322 is a payload satellite owned by SpaceX/Seattle (US) in LEO that was launched on Thu, 06 Nov 2025 UTC via an FALCON 9 launch vehicle from the Air Force Eastern Test Range (AFETR). Payload-class satellites include a variety of spacecraft equipped with specific instruments for various scientific and technological missions. These include communications satellites like Starlink; space stations such as the ISS; scientific satellites like the Hubble; Earth observation satellites from companies like Planet Labs, Umbra, and HawkEye 360; GPS; miniature CubeSats for education and research; and military/defense satellites.

Loading next visibility...
Identifier
66322, 2025-253D
Orbit
LEO
Country
Flag of USUS
Related business
Manufacturer
SpaceX/Seattle
Mission
Operational Commercial Communications
Bus & Motor
STARLINK V2MO, Unknown motor
Mass
575 kg wet, ~530 kg dry
Launch date (UTC)
2025-11-06 (7 months ago)
Launch vehicle
FALCON 9
Launch site
Air Force Eastern Test Range (AFETR)
Object type
Payload
Rocket body
Debris
Shape & HBR
Box + 2 Pan, 17.7 m
Radar Cross Section
36.964 m², Large (>1 m²)

Expand to show TLE details & history
Last TLE update: 15 hours ago

TLE from 15 hours ago
0 STARLINK-35292
1 66322U 25253D   26170.54103942  .00023314  00000-0  85393-3 0  9994
2 66322  43.0010 357.1123 0001059 263.3128  96.7604 15.27585625 35827
Epoch: 2026-06-19T12:59Z
TLE epoch observation values (Epoch: 2026-06-19T12:59:05.805Z)
Latitude
0.00002°
Longitude
-105.4304°
Altitude
482.893 km
Speed
7.626 km/s
True Right ascension
23h 48m 26s
True Declination
0° 00' 00"
Sunlit
Object was in daylight at epoch
Visualization orbit readout
Latitude
Unknown
Longitude
Unknown
Altitude
Unknown
Speed
Unknown
Apparent Right ascension
Unknown
Apparent Declination
Unknown
Sunlit
N/A
Visualization observer readout
Local Sidereal Time
14:26:27
Azimuth
Unknown
Elevation
Unknown
Doppler factor
Unknown
Orbital elements
Apogee altitude
485.704 km
Perigee altitude
484.25 km
Semi-major axis
6,863.114 km
Eccentricity
0.00011
Inclination
43.001°
RAAN
357.1123°
Arg. of periapsis
263.3128°
True anomaly
96.77245°
Mean anomaly
96.7604°
Eccentric anomaly
96.76643°
Mean motion
3.81734 °/min
Orbital period
94.31 mins
BSTAR
0.00085393
Loading maneuver chart data...
Computing Atmospheric mass density...
Loading historical data...
Loading historical data...
Loading historical data...
Loading historical data...
Loading historical data...
Loading historical data...
Loading historical data...

Documentation

Showing up to 5 results
|